Regional Weather Roundup
Issued by NWS Newport/Morehead, NC

Current Version | Previous Version | Graphics & Text | Print | Product List | Glossary Off
Versions: 1 2 3 4 5 6 7 8 9 10 11 12 13 14 15 16 17 18 19 20 21 22 23 24 25 26 27 28 29 30 31 32 33 34 35 36 37 38 39 40 41 42 43 44 45 46 47 48 49 50

000
ASUS42 KMHX 060024
RWRMHX
WEATHER ROUNDUP FOR EASTERN NORTH CAROLINA
NATIONAL WEATHER SERVICE NEWPORT/MOREHEAD CITY NC
800 PM EDT TUE MAY 05 2015

NOTE: "FAIR" INDICATES FEW OR NO CLOUDS BELOW 12,000 FEET
WITH NO SIGNIFICANT WEATHER AND/OR OBSTRUCTIONS TO VISIBILITY

NCZ015>017-031-032-045>047-102-103-060100-
NORTH COAST

CITY           SKY/WX    TMP DP  RH WIND       PRES   REMARKS
EDENTON        MOCLDY    69  55  60 S9        30.27S
ELIZABETH CITY MOCLDY    71  53  52 S10       30.27R
KITTY HAWK     MOCLDY    69  53  57 S5        30.28S
MANTEO         MOCLDY    67  58  73 S9        30.29S

$$

NCZ045>047-081-094-103-104-060100-
CENTRAL COAST

CITY           SKY/WX    TMP DP  RH WIND       PRES   REMARKS
FRISCO         MOCLDY    66  56  70 S9        30.31R
SWANQUARTER      N/A     70 N/A N/A S3G12     30.27S

$$

NCZ095-097-098-100-101-060100-
SOUTHERN COAST

CITY           SKY/WX    TMP DP  RH WIND       PRES   REMARKS
BEAUFORT       PTCLDY    67  57  70 SE3       30.29S
CEDAR ISLAND     N/A     70 N/A N/A S3G9      30.33S
JACKSONVILLE   PTCLDY    68  55  63 SE5       30.28S
PINEY ISLAND   PTCLDY   N/A N/A N/A S5        30.29R
WILMINGTON     MOCLDY    69  55  60 E3        30.28R


$$

NCZ011>013-027>030-043-044-078>080-089-090>093-098-060100-
COASTAL PLAIN

CITY           SKY/WX    TMP DP  RH WIND       PRES   REMARKS
AHOSKIE        PTCLDY    71  53  52 SE8       30.25R
CLINTON        PTCLDY    72  54  54 SE3       30.28R
ELIZABETHTOWN  PTCLDY    70  52  52 E3        30.27S
GOLDSBORO      PTCLDY    73  49  43 S7        30.25R
GREENVILLE     MOCLDY    73  52  46 S14       30.27S
HAVELOCK       PTCLDY    68  51  54 S5        30.30S
KENANSVILLE    MOCLDY    70  50  50 CALM      30.29S
KINSTON        MOCLDY    72  50  46 S10       30.28R
NEW BERN       MOCLDY    68  51  54 S3        30.30R
RICHLANDS      PTCLDY    66  54  63 CALM      30.30S
ROCKY MOUNT    CLEAR     74  50  42 S9        30.25R
WASHINGTON     MOCLDY    70  51  51 S7        30.29R
WHITEVILLE     MOCLDY    71  55  55 SE3       30.26S

$$

AMZ130-135-150-152-154-156-158-170-250-252-270-ANZ085-086-088-633-658-670-060100-
MARINE OBSERVATIONS

STATION/POSITION TIME  TEMP    WIND        PRES    WAVE   SWELL
                       AIR SEA DIR/SP/G            HT/PER HT/PER
                 (UTC) (F)     (DEG/KT/KT) (MB)    (FT/S) (FT/S)
CHESAPEAKE LIGHT 0000   67     190/ 24/ 25 1024.1
64 E VA BEACH    2350   64 61  200/ 12/ 14 1025.0    2/11   2/11
DUCK             2300   72 55  180/ 14/ 20 1024.1
2 E DUCK         2311      57                N/A     2/11
OREGON INLET     2300   70 72  200/ 11/ 12 1025.7
13E OREGON INLT  0000      62                N/A     2/12   2/12
HATTERAS CG      2300          160/  8/ 12 1025.4
DIAMOND BUOY     2350   71 77  170/ 16/ 17 1025.9    3/ 9   2/ 9
CAPE LOOKOUT     0000   68     150/  7/  8 1025.4
BEAUFORT LAB     2300   70 69  160/  7/  9 1024.8
27 SE WRIGHTSVLE 0000   68 71  130/  6/  8   N/A
5 SE WRIGHTSVLE  NOT AVBL
225 S CAPE HAT   2350   70 70  100/ 19/ 23 1024.4    6/ 7   2/ 9
41 SE CHARLESTON 2350   73 74   70/ 14/ 16 1023.3    4/ 7   3/ 7

$$



USA.gov is the U.S. government's official web portal to all federal, state and local government web resources and services.